Weather History for Fredericksburg, TX

Change the Weather History Date:

Monday, January 13, 2014

  Actual Average (KSAT) Record (KSAT)
Temperature  
Mean Temperature 46 °F 52 °F  
Max Temperature 61 °F 63 °F 81 °F (1907)
Min Temperature 30 °F 41 °F 15 °F (1975)
Degree Days  
Heating Degree Days 20 14  
Month to date heating degree days 182  
Since 1 July heating degree days 784  
Cooling Degree Days 0 0  
Month to date cooling degree days 0  
Year to date cooling degree days 0  
Moisture  
Dew Point 31 °F    
Average Humidity 53    
Maximum Humidity 96    
Minimum Humidity 20    
Precipitation  
Precipitation 0.00 in 0.06 in 0.77 in (1910)
Month to date precipitation 0.70  
Year to date precipitation 0.70  
Snow  
Snow 0.00 in - - ()
Month to date snowfall  
Since 1 July snowfall  
Snow Depth -    
Sea Level Pressure  
Sea Level Pressure 30.06 in    
Wind  
Wind Speed 9 mph (NW)    
Max Wind Speed 21 mph    
Max Gust Speed 28 mph    
Visibility 10 miles    
Events      
T = Trace of Precipitation, MM = Missing Value Source: NWS Daily Summary

Daily Weather History Graph

Daily Weather History Graph

Search for Another Location

Airport:

Trip Planner

Search our weather history database for the weather conditions in past years. The results will help you decide how hot, cold, wet, or windy it might be!

Date:

Astronomy

Jan. 13, 2014 Rise Set
Actual Time 7:32 AM CST 5:56 PM CST
Civil Twilight 7:07 AM CST 6:22 PM CST
Nautical Twilight 6:37 AM CST 6:51 PM CST
Astronomical Twilight 6:08 AM CST 7:20 PM CST
Moon 4:11 PM CST (1/13) 5:24 AM CST (1/13)
Length of Visible Light 11h 14m
Length of Day
10h 23m
Waxing Gibbous, 95% of the Moon is Illuminated
Jan 13
Waxing Gibbous
Jan 15
Full
Jan 23
Last Quarter
Jan 30
New
Feb 6
First Quarter

Hourly Weather History & Observations

Time (CST) Temp. Windchill Dew Point Humidity Pressure Visibility Wind Dir Wind Speed Gust Speed Precip Events Conditions
12:15 AM 58.8 °F - 55.6 °F 89% 29.90 in 10.0 mi SW 8.1 mph - N/A   Scattered Clouds
12:35 AM 58.5 °F - 55.6 °F 90% 29.89 in 10.0 mi SW 4.6 mph - N/A   Clear
12:55 AM 58.1 °F - 55.4 °F 91% 29.89 in 10.0 mi SW 8.1 mph - N/A   Clear
1:15 AM 58.3 °F - 55.9 °F 92% 29.90 in 10.0 mi SW 8.1 mph - N/A   Mostly Cloudy
1:35 AM 59.0 °F - 56.7 °F 92% 29.90 in 10.0 mi WSW 6.9 mph - N/A   Overcast
1:55 AM 58.6 °F - 56.3 °F 92% 29.90 in 10.0 mi WSW 6.9 mph - N/A   Overcast
2:15 AM 57.9 °F - 55.9 °F 93% 29.90 in 10.0 mi WSW 5.8 mph - N/A   Mostly Cloudy
2:35 AM 56.5 °F - 54.7 °F 94% 29.90 in 10.0 mi WNW 5.8 mph - N/A   Scattered Clouds
2:55 AM 56.3 °F - 54.7 °F 94% 29.90 in 10.0 mi West 5.8 mph - N/A   Clear
3:15 AM 54.1 °F - 52.9 °F 95% 29.92 in 7.0 mi WNW 5.8 mph - N/A   Clear
3:35 AM 54.7 °F - 53.6 °F 96% 29.92 in 10.0 mi West 5.8 mph - N/A   Clear
3:55 AM 52.9 °F - 51.1 °F 94% 29.92 in 7.0 mi Calm Calm - N/A   Clear
4:15 AM 53.2 °F - 51.8 °F 95% 29.92 in 10.0 mi West 5.8 mph - N/A   Clear
4:35 AM 51.6 °F - 50.2 °F 95% 29.92 in 10.0 mi SW 6.9 mph - N/A   Clear
4:55 AM 50.9 °F - 49.8 °F 96% 29.93 in 7.0 mi Calm Calm - N/A   Clear
5:15 AM 45.3 °F - 43.5 °F 93% 29.94 in 1.8 mi Calm Calm - N/A   Mist
5:35 AM 49.1 °F - 41.2 °F 74% 29.96 in 10.0 mi NNW 9.2 mph - N/A   Clear
5:55 AM 52.0 °F - 37.9 °F 59% 29.97 in 10.0 mi NNW 11.5 mph 19.6 mph N/A   Clear
6:15 AM 51.6 °F - 35.8 °F 55% 29.99 in 10.0 mi NNW 10.4 mph - N/A   Clear
6:35 AM 50.2 °F - 34.7 °F 55% 30.00 in 10.0 mi NNW 12.7 mph 19.6 mph N/A   Clear
6:55 AM 49.3 °F - 34.0 °F 56% 30.02 in 10.0 mi NNW 10.4 mph - N/A   Clear
7:15 AM 48.9 °F - 33.1 °F 54% 30.03 in 10.0 mi NNW 10.4 mph - N/A   Clear
7:35 AM 48.4 °F - 32.4 °F 54% 30.04 in 10.0 mi NNW 10.4 mph 16.1 mph N/A   Clear
7:55 AM 47.8 °F - 32.0 °F 54% 30.06 in 10.0 mi NNW 9.2 mph - N/A   Clear
8:15 AM 48.2 °F - 32.2 °F 54% 30.07 in 10.0 mi NW 8.1 mph - N/A   Clear
8:35 AM 49.6 °F - 31.8 °F 50% 30.07 in 10.0 mi NNW 10.4 mph - N/A   Clear
8:55 AM 50.4 °F - 31.3 °F 48% 30.08 in 10.0 mi NNW 10.4 mph 21.9 mph N/A   Clear
9:15 AM 52.0 °F - 30.6 °F 44% 30.10 in 10.0 mi NNW 11.5 mph 17.3 mph N/A   Clear
9:35 AM 52.7 °F - 28.9 °F 40% 30.10 in 10.0 mi NNW 11.5 mph 18.4 mph N/A   Clear
9:55 AM 53.6 °F - 28.4 °F 38% 30.11 in 10.0 mi NNW 15.0 mph 19.6 mph N/A   Clear
10:15 AM 54.9 °F - 27.1 °F 34% 30.13 in 10.0 mi North 20.7 mph 26.5 mph N/A   Clear
10:35 AM 55.8 °F - 26.8 °F 33% 30.14 in 10.0 mi North 17.3 mph 26.5 mph N/A   Clear
10:55 AM 56.1 °F - 25.5 °F 31% 30.14 in 10.0 mi North 19.6 mph 27.6 mph N/A   Clear
11:15 AM 56.5 °F - 23.5 °F 28% 30.14 in 10.0 mi North 19.6 mph 25.3 mph N/A   Clear
11:35 AM 57.4 °F - 23.5 °F 27% 30.14 in 10.0 mi NNW 18.4 mph 23.0 mph N/A   Clear
11:55 AM 58.3 °F - 21.6 °F 24% 30.13 in 10.0 mi North 17.3 mph 27.6 mph N/A   Clear
12:15 PM 59.2 °F - 21.2 °F 23% 30.13 in 10.0 mi North 19.6 mph 23.0 mph N/A   Clear
12:35 PM 59.9 °F - 20.8 °F 22% 30.11 in 10.0 mi North 18.4 mph 26.5 mph N/A   Clear
12:55 PM 60.3 °F - 20.8 °F 22% 30.11 in 10.0 mi NNW 19.6 mph 23.0 mph N/A   Clear
1:15 PM 61.2 °F - 21.2 °F 22% 30.10 in 10.0 mi NNW 18.4 mph 25.3 mph N/A   Clear
1:35 PM 61.3 °F - 21.2 °F 21% 30.10 in 10.0 mi NNW 15.0 mph 25.3 mph N/A   Clear
1:55 PM 61.7 °F - 22.6 °F 22% 30.10 in 10.0 mi NNW 17.3 mph 23.0 mph N/A   Clear
2:15 PM 61.0 °F - 21.6 °F 22% 30.10 in 10.0 mi North 16.1 mph 25.3 mph N/A   Clear
2:35 PM 61.7 °F - 21.7 °F 22% 30.10 in 10.0 mi North 12.7 mph 23.0 mph N/A   Clear
2:55 PM 61.2 °F - 20.7 °F 21% 30.11 in 10.0 mi WNW 16.1 mph 20.7 mph N/A   Clear
3:15 PM 61.7 °F - 19.6 °F 20% 30.10 in 10.0 mi NW 13.8 mph 24.2 mph N/A   Clear
3:35 PM 61.7 °F - 20.5 °F 20% 30.11 in 10.0 mi NW 12.7 mph 20.7 mph N/A   Clear
3:55 PM 61.3 °F - 19.9 °F 20% 30.11 in 10.0 mi NW 15.0 mph 19.6 mph N/A   Clear
4:15 PM 61.2 °F - 20.1 °F 21% 30.12 in 10.0 mi NW 12.7 mph 21.9 mph N/A   Clear
4:35 PM 60.6 °F - 19.2 °F 20% 30.12 in 10.0 mi NNW 12.7 mph 19.6 mph N/A   Clear
4:55 PM 59.9 °F - 18.7 °F 20% 30.11 in 10.0 mi NW 11.5 mph - N/A   Clear
5:15 PM 59.0 °F - 19.4 °F 22% 30.12 in 10.0 mi NW 12.7 mph - N/A   Clear
5:35 PM 57.6 °F - 19.2 °F 23% 30.12 in 10.0 mi NNW 9.2 mph - N/A   Clear
5:55 PM 54.1 °F - 20.8 °F 27% 30.12 in 10.0 mi NW 4.6 mph - N/A   Clear
6:15 PM 50.5 °F - 19.9 °F 30% 30.12 in 10.0 mi Calm Calm - N/A   Clear
6:35 PM 44.6 °F - 22.3 °F 41% 30.12 in 10.0 mi Calm Calm - N/A   Clear
6:55 PM 43.0 °F - 22.8 °F 45% 30.12 in 10.0 mi Calm Calm - N/A   Clear
7:15 PM 43.3 °F - 23.2 °F 45% 30.13 in 10.0 mi Calm Calm - N/A   Clear
7:35 PM 41.9 °F 40.0 °F 24.6 °F 50% 30.14 in 10.0 mi WNW 3.5 mph - N/A   Clear
7:55 PM 41.0 °F 38.0 °F 25.0 °F 53% 30.14 in 10.0 mi NW 4.6 mph - N/A   Clear
8:15 PM 40.1 °F 38.0 °F 24.3 °F 53% 30.14 in 10.0 mi NW 3.5 mph - N/A   Clear
8:35 PM 39.9 °F 37.8 °F 24.1 °F 53% 30.15 in 10.0 mi NW 3.5 mph - N/A   Clear
8:55 PM 35.2 °F 32.4 °F 23.9 °F 63% 30.16 in 10.0 mi NW 3.5 mph - N/A   Clear
9:15 PM 36.3 °F - 24.8 °F 63% 30.15 in 10.0 mi Calm Calm - N/A   Clear
9:35 PM 35.6 °F 32.8 °F 24.3 °F 63% 30.15 in 10.0 mi WNW 3.5 mph - N/A   Clear
9:55 PM 35.1 °F 32.2 °F 23.5 °F 63% 30.15 in 10.0 mi WNW 3.5 mph - N/A   Clear
10:15 PM 32.2 °F 28.9 °F 23.7 °F 71% 30.14 in 10.0 mi NNW 3.5 mph - N/A   Clear
10:35 PM 33.6 °F 30.6 °F 23.5 °F 67% 30.15 in 10.0 mi WSW 3.5 mph - N/A   Clear
10:55 PM 31.6 °F 28.3 °F 23.4 °F 71% 30.15 in 10.0 mi NW 3.5 mph - N/A   Clear
11:15 PM 32.0 °F 28.7 °F 24.3 °F 73% 30.14 in 10.0 mi West 3.5 mph - N/A   Clear
11:35 PM 30.9 °F 26.2 °F 23.0 °F 72% 30.14 in 10.0 mi NNW 4.6 mph - N/A   Clear
11:55 PM 31.1 °F 27.7 °F 23.0 °F 72% 30.14 in 10.0 mi West 3.5 mph - N/A   Clear